Content
SEND FEEDBACK

Daily
Averages
Monthly
Summary
United States of America

SOUTHPORT, NORTH CAROLINA


Home > North America > United States > North Carolina
Elevation: 38 feet     Latitude: 34 00N     Longitude: 078 01W

WEATHER
 
SELECT A DAY
Number of Records: 136,373;   Date Range: 8/21/01 - 7/26/14
 
SHARE

PRINT THIS DATA

[ ← Previous Day ]
WEATHER ALMANAC - JANUARY 20, 2013
[ Next Day → ]
[ °C ]   °F
Weather ElementAverageHighLow
Temperature48.4 °F58.3 °F (12:15 pm)39.6 °F (1:15 am)
Dewpoint41.9 °F46.6 °F (5:55 pm)37.9 °F (3:15 pm)
Humidity80.6 %97 % (12:35 am)48 % (3:15 pm)
Barometer30.11 in30.20 in (12:35 am)30.03 in (2:15 pm)
Wind Speed4.2 mph15 mph (9:55 am)
Wind Gust19.6 mph (10:15 am)
Weather ElementAverage
Visibility10 mi
Wind DirectionSE (138.7 °)

Weather ElementTotal
Precipitation---
Heating Degree Days16.1 (Base 65)
Averaged from 67 records on January 20, 2013
WEATHER CONDITIONS BREAKOUT
WIND DIRECTION BREAKOUT
WEATHER BY HOUR - JANUARY 20, 2013
[ °C ]   °F
Local TimeTemperatureDewpointHumidityBarometerVisibilityWind DirectionWind SpeedGust SpeedPrecipitationEventsConditions
12:35 AM40.1 °F39.2 °F97 %30.20 in7.0 miCalmClear
12:55 AM40.1 °F38.7 °F95 %30.20 in10.0 miCalmClear
1:15 AM39.6 °F38.3 °F95 %30.19 in10.0 miCalmClear
1:35 AM40.1 °F38.3 °F93 %30.19 in10.0 miCalmClear
1:55 AM39.6 °F38.3 °F95 %30.19 in10.0 miCalmClear
2:15 AM40.1 °F38.7 °F95 %30.19 in10.0 miCalmClear
2:35 AM40.6 °F39.6 °F96 %30.18 in10.0 miCalmClear
2:55 AM40.5 °F39.6 °F97 %30.17 in10.0 miCalmClear
3:15 AM41.5 °F40.6 °F97 %30.17 in10.0 miCalmClear
3:55 AM40.5 °F39.2 °F95 %30.16 in10.0 miCalmClear
4:15 AM40.1 °F38.5 °F94 %30.16 in10.0 miCalmClear
4:35 AM42.3 °F41.4 °F97 %30.15 in10.0 miCalmClear
4:55 AM42.6 °F41.7 °F97 %30.16 in10.0 miCalmClear
5:15 AM42.1 °F41.0 °F96 %30.15 in10.0 miWest (270°)3.5 mphClear
5:35 AM43.0 °F42.1 °F97 %30.15 in10.0 miWest (270°)3.5 mphClear
5:55 AM43.3 °F42.3 °F96 %30.15 in10.0 miWest (270°)4.6 mphClear
6:15 AM43.2 °F42.3 °F97 %30.16 in10.0 miWest (280°)4.6 mphClear
6:35 AM44.2 °F43.3 °F97 %30.16 in10.0 miWest (280°)4.6 mphClear
7:15 AM43.2 °F41.9 °F95 %30.16 in10.0 miWest (280°)5.8 mphClear
7:35 AM43.3 °F41.5 °F93 %30.16 in10.0 miWest (270°)5.8 mphClear
8:15 AM45.3 °F42.8 °F91 %30.16 in10.0 miWest (270°)4.6 mphClear
8:35 AM47.1 °F43.9 °F88 %30.16 in10.0 miWSW (250°)4.6 mphClear
8:55 AM49.3 °F44.6 °F84 %30.16 in10.0 miWest (260°)6.9 mphClear
9:15 AM50.9 °F43.9 °F77 %30.17 in10.0 miWest (270°)9.2 mphClear
9:35 AM52.0 °F43.5 °F73 %30.17 in10.0 miWest (260°)6.9 mphClear
9:55 AM54.3 °F42.6 °F65 %30.17 in10.0 miWest (280°)15.0 mphClear
10:15 AM55.6 °F41.0 °F58 %30.16 in10.0 miWest (270°)11.5 mph19.6 mphClear
10:35 AM56.5 °F42.4 °F59 %30.16 in10.0 miWSW (250°)11.5 mph17.3 mphClear
10:55 AM56.7 °F43.5 °F61 %30.14 in10.0 miWest (260°)10.4 mph16.1 mphClear
11:15 AM58.1 °F40.8 °F53 %30.13 in10.0 miWSW (240°)10.4 mph19.6 mphClear
11:35 AM57.0 °F42.1 °F57 %30.11 in10.0 miWSW (240°)10.4 mph16.1 mphClear
11:55 AM57.9 °F42.6 °F57 %30.10 in10.0 miWSW (240°)10.4 mphClear
12:15 PM58.3 °F41.7 °F54 %30.08 in10.0 miWSW (240°)9.2 mphClear
12:35 PM57.6 °F41.9 °F56 %30.07 in10.0 miSW (230°)9.2 mphClear
1:15 PM57.2 °F41.9 °F57 %30.05 in10.0 miSW (230°)9.2 mphClear
1:35 PM57.4 °F40.8 °F54 %30.04 in10.0 miSW (230°)10.4 mphClear
1:55 PM57.2 °F41.7 °F56 %30.04 in10.0 miSW (230°)8.1 mphClear
2:15 PM57.2 °F40.8 °F54 %30.03 in10.0 miSW (230°)9.2 mphClear
2:35 PM57.2 °F41.9 °F57 %30.03 in10.0 miSW (230°)10.4 mphClear
2:55 PM57.4 °F38.1 °F49 %30.03 in10.0 miWSW (240°)10.4 mphClear
3:15 PM57.4 °F37.9 °F48 %30.03 in10.0 miWSW (240°)9.2 mphClear
3:35 PM57.2 °F39.0 °F51 %30.03 in10.0 miWSW (240°)8.1 mphClear
3:55 PM56.8 °F40.8 °F55 %30.03 in10.0 miWSW (240°)6.9 mphClear
4:15 PM56.5 °F41.0 °F56 %30.03 in10.0 miWSW (240°)5.8 mphClear
4:35 PM55.8 °F41.7 °F59 %30.03 in10.0 miWSW (240°)6.9 mphClear
4:55 PM54.9 °F43.5 °F66 %30.04 in10.0 miSW (230°)5.8 mphClear
5:15 PM54.0 °F45.1 °F72 %30.04 in10.0 miWSW (250°)3.5 mphClear
5:35 PM52.3 °F45.9 °F79 %30.05 in10.0 miWSW (240°)4.6 mphClear
5:55 PM51.3 °F46.6 °F84 %30.05 in10.0 miWSW (250°)3.5 mphClear
6:15 PM50.4 °F46.6 °F87 %30.05 in10.0 miCalmClear
6:35 PM50.0 °F46.4 °F87 %30.06 in10.0 miCalmClear
6:55 PM49.3 °F46.4 °F90 %30.06 in10.0 miWSW (250°)3.5 mphClear
7:15 PM49.1 °F46.4 °F90 %30.06 in10.0 miCalmClear
7:35 PM48.6 °F45.9 °F90 %30.07 in10.0 miCalmClear
7:55 PM48.6 °F46.0 °F91 %30.07 in10.0 miCalmClear
8:15 PM48.0 °F45.5 °F91 %30.07 in10.0 miCalmClear
8:35 PM45.3 °F43.3 °F93 %30.08 in10.0 miCalmClear
8:55 PM46.2 °F44.1 °F92 %30.08 in10.0 miCalmClear
9:15 PM45.0 °F43.0 °F93 %30.09 in10.0 miCalmClear
9:35 PM43.9 °F42.1 °F93 %30.09 in10.0 miCalmClear
9:55 PM43.0 °F41.0 °F93 %30.09 in10.0 miCalmClear
10:15 PM42.4 °F41.0 °F95 %30.10 in10.0 miCalmClear
10:35 PM41.9 °F40.3 °F94 %30.10 in10.0 miCalmClear
10:55 PM41.9 °F40.3 °F94 %30.10 in10.0 miCalmClear
11:15 PM41.4 °F39.4 °F93 %30.10 in10.0 miCalmClear
11:35 PM40.6 °F39.4 °F95 %30.09 in10.0 miCalmClear
11:55 PM40.3 °F38.7 °F94 %30.09 in10.0 miCalmClear
Hourly data recorded from KSUT, located miles away from Southport, North Carolina







STORIES FROM OUR PARTNERS